Stations météo

Publicité
La Rochelle/Ile de Re, France (7316): Température de l'air & dewpoint: 15.07.2019 16:00:00 - 21.07.2019 16:00:00 (CEST)La Rochelle/Ile de Re, France (7316): Vitesse du vent & gusts: 15.07.2019 16:00:00 - 21.07.2019 16:00:00 (CEST)La Rochelle/Ile de Re, France (7316): Direction du vent: 15.07.2019 16:00:00 - 21.07.2019 16:00:00 (CEST)La Rochelle/Ile de Re, France (7316): reduced air pressure: 15.07.2019 16:00:00 - 21.07.2019 16:00:00 (CEST)La Rochelle/Ile de Re, France (7316): visibility: 15.07.2019 16:00:00 - 21.07.2019 16:00:00 (CEST)La Rochelle/Ile de Re, France (7316): Ensoleillement: 15.07.2019 16:00:00 - 21.07.2019 16:00:00 (CEST)La Rochelle/Ile de Re, France (7316): Quantités de précipitations: 15.07.2019 16:00:00 - 21.07.2019 16:00:00 (CEST)
Date & Time tt [°C] td [°C] ff [km/h] ff [knt] fx [km/h] fx [knt] dd ppp [hPa] vv [km] sd [min] rr [mm]
21.07.2019 16:00:00 25,5 16,4 23 12 32 18 NW 1023,2 22 60 0,0
21.07.2019 15:00:00 25,2 15,5 18 10 29 16 WNW 1023,1 27 60 0,0
21.07.2019 14:00:00 24,3 14,1 16 9 28 15 WNW 1023,4 20 60 0,0
21.07.2019 13:00:00 24,3 15,0 15 8 22 12 NW 1023,3 36 60 0,0
21.07.2019 12:00:00 23,6 15,4 12 7 23 13 NW 1023,5 37 54 0,0
21.07.2019 11:00:00 22,2 16,0 14 7 21 11 NW 1023,4 12 20 0,0
21.07.2019 10:00:00 22,1 15,9 5 3 15 8 NNE 1023,3 49 58 0,0
21.07.2019 09:00:00 20,0 16,6 10 5 15 8 E 1023,0 34 60 0,0
21.07.2019 08:00:00 17,9 16,6 8 4 12 7 E 1022,4 20 60 0,0
21.07.2019 07:00:00 15,7 14,9 7 4 10 6 ENE 1022,2 14 1 0,0
21.07.2019 06:00:00 16,4 15,3 7 4 10 5 ENE 1021,7 20 0 0,0
21.07.2019 05:00:00 17,8 16,1 7 4 14 8 NW 1021,5 40 0 0,0
21.07.2019 04:00:00 18,3 16,5 5 3 16 9 W 1021,4 34 0 0,0
21.07.2019 03:00:00 18,8 16,2 13 7 22 12 WNW 1021,3 35 0 0,0
21.07.2019 02:00:00 18,9 16,1 16 9 24 13 NW 1021,1 35 0 0,0
21.07.2019 01:00:00 19,0 15,9 17 9 25 14 WNW 1021,1 44 0 0,0
21.07.2019 00:00:00 19,0 16,0 16 8 23 13 WNW 1020,7 46 0 0,0
20.07.2019 23:00:00 19,4 16,1 18 10 30 16 WNW 1020,2 48 0 0,0
20.07.2019 22:00:00 19,8 16,2 22 12 31 17 WNW 1019,3 48 12 0,0
20.07.2019 21:00:00 20,8 17,2 22 12 32 17 NW 1018,8 33 44 0,0
20.07.2019 20:00:00 21,9 17,7 20 11 29 16 WNW 1018,0 35 33 0,0
20.07.2019 19:00:00 22,7 18,5 18 10 33 18 WSW 1017,9 27 36 0,0
20.07.2019 18:00:00 22,7 17,4 18 10 39 21 WSW 1017,7 22 9 0,0
20.07.2019 17:00:00 23,7 18,6 24 13 40 22 W 1017,3 14 30 0,0
20.07.2019 16:00:00 24,9 18,1 23 12 39 21 SW 1017,1 16 60 0,0
20.07.2019 15:00:00 24,6 18,1 22 12 39 21 SW 1016,9 18 60 0,0
20.07.2019 14:00:00 24,4 17,9 24 13 35 19 SW 1016,6 22 50 0,0
20.07.2019 13:00:00 23,5 18,2 20 11 31 17 W 1016,2 27 6 0,0
20.07.2019 12:00:00 23,2 18,1 19 10 31 17 WSW 1015,9 29 0 0,0
20.07.2019 11:00:00 22,5 17,6 18 10 27 14 WSW 1015,4 44 0 0,0
20.07.2019 10:00:00 21,8 17,2 11 6 21 11 SW 1014,9 54 0 0,0
20.07.2019 09:00:00 21,6 17,8 11 6 20 11 SW 1014,4 19 3 0,0
20.07.2019 08:00:00 20,4 17,0 10 6 16 9 WSW 1014,0 19 0 0,0
20.07.2019 07:00:00 19,5 17,3 6 3 11 6 SW 1013,4 52 0 0,0
20.07.2019 06:00:00 18,1 16,8 5 3 14 8 W 1013,0 49 0 0,0
20.07.2019 05:00:00 18,6 16,9 9 5 20 11 W 1013,2 47 0 0,0
20.07.2019 04:00:00 18,8 16,8 9 5 17 9 WNW 1012,5 57 0 0,0
20.07.2019 03:00:00 19,1 17,1 9 5 19 10 W 1013,1 53 0 0,0
20.07.2019 02:00:00 19,3 16,9 14 8 22 12 NW 1013,4 57 0 0,0
20.07.2019 01:00:00 19,3 16,9 13 7 20 11 WNW 1013,3 60 0 0,0
20.07.2019 00:00:00 19,3 16,9 13 7 19 10 NW 1013,1 60 0 0,0
19.07.2019 23:00:00 19,5 16,5 12 7 20 11 NW 1013,3 59 0 0,0
19.07.2019 22:00:00 19,9 16,5 15 8 22 12 NW 1013,1 60 20 0,0
19.07.2019 21:00:00 21,3 16,7 14 7 23 12 NNW 1013,3 30 60 0,0
19.07.2019 20:00:00 22,7 16,5 16 9 24 13 NW 1013,6 21 60 0,0
19.07.2019 19:00:00 23,5 15,5 14 8 27 15 W 1014,2 22 60 0,0
19.07.2019 18:00:00 23,8 15,8 18 10 29 16 W 1014,9 22 60 0,0
19.07.2019 17:00:00 24,3 15,8 17 9 29 16 W 1015,2 26 60 0,0
19.07.2019 16:00:00 24,3 15,8 17 9 31 17 WSW 1015,8 31 60 0,0
19.07.2019 15:00:00 24,5 16,5 15 8 27 15 SW 1016,4 41 60 0,0
19.07.2019 14:00:00 24,7 16,1 14 8 26 14 WSW 1016,8 50 56 0,0
19.07.2019 13:00:00 24,4 15,3 11 6 24 13 SSE 1017,0 44 60 0,0
19.07.2019 12:00:00 23,5 15,3 11 6 24 13 S 1017,3 46 60 0,0
19.07.2019 11:00:00 22,6 15,2 10 5 21 11 S 1017,5 44 57 0,0
19.07.2019 10:00:00 21,7 16,2 8 4 17 9 S 1017,7 58 52 0,0
19.07.2019 09:00:00 20,5 16,7 9 5 15 8 SSE 1017,5 47 60 0,0
19.07.2019 08:00:00 17,8 16,8 5 3 8 4 SE 1017,4 19 37 0,0
19.07.2019 07:00:00 16,2 15,2 7 4 8 4 ESE 1017,3 29 3 0,0
19.07.2019 06:00:00 16,5 15,0 5 3 8 4 SSE 1017,1 43 0 0,0
19.07.2019 05:00:00 17,7 15,9 7 4 13 7 NW 1017,1 60 0 0,0
19.07.2019 04:00:00 18,0 16,5 9 5 15 8 NW 1017,4 40 0 0,0
19.07.2019 03:00:00 18,5 16,8 10 5 16 9 WNW 1017,7 36 0 0,0
19.07.2019 02:00:00 19,5 17,8 11 6 18 10 W 1017,6 53 0 0,0
19.07.2019 01:00:00 19,3 18,0 12 7 21 11 WSW 1017,6 48 0 0,0
19.07.2019 00:00:00 19,0 18,0 11 6 17 9 WSW 1017,7 42 0 0,0
18.07.2019 23:00:00 19,0 18,3 9 5 35 19 W 1017,6 20 0 0,2
18.07.2019 22:00:00 18,9 17,6 17 9 35 19 WSW 1017,4 7 0 0,0
18.07.2019 21:00:00 20,7 17,3 21 12 31 17 WSW 1017,2 37 0 0,0
18.07.2019 20:00:00 21,5 16,5 18 10 32 17 WSW 1017,1 35 11 0,0
18.07.2019 19:00:00 21,8 16,3 22 12 37 20 WSW 1017,2 27 9 0,0
18.07.2019 18:00:00 21,8 15,9 26 14 40 22 WSW 1017,4 25 19 0,0
18.07.2019 17:00:00 23,0 15,8 25 14 39 21 WSW 1017,4 23 43 0,0
18.07.2019 16:00:00 23,0 15,6 20 11 38 21 SW 1017,6 26 8 0,0
18.07.2019 15:00:00 23,0 14,3 22 12 35 19 WSW 1017,7 29 23 0,0
18.07.2019 14:00:00 23,1 14,4 21 12 37 20 SW 1017,8 35 29 0,0
18.07.2019 13:00:00 21,9 14,5 24 13 35 19 SW 1017,9 44 19 0,0
18.07.2019 12:00:00 21,6 15,2 20 11 30 16 SW 1017,7 50 37 0,0
18.07.2019 11:00:00 20,9 14,8 13 7 25 13 SW 1017,6 48 7 0,0
18.07.2019 10:00:00 20,7 14,8 8 5 16 9 W 1017,5 35 57 0,0
18.07.2019 09:00:00 19,8 14,8 8 4 14 8 WNW 1017,3 44 41 0,0
18.07.2019 08:00:00 18,7 15,0 8 5 22 12 NW 1017,0 48 27 0,0
18.07.2019 07:00:00 18,1 14,2 16 9 30 16 NW 1016,6 47 4 0,0
18.07.2019 06:00:00 18,4 14,5 22 12 37 20 NW 1016,5 44 0 0,0
18.07.2019 05:00:00 18,3 15,0 29 16 45 25 NW 1016,3 35 0 0,0
18.07.2019 04:00:00 18,4 15,5 27 15 42 23 NW 1016,2 32 0 0,0
18.07.2019 03:00:00 18,9 15,2 28 15 44 24 WNW 1016,7 40 0 0,0
18.07.2019 02:00:00 18,9 15,0 29 16 40 22 WNW 1016,9 38 0 0,0
18.07.2019 01:00:00 19,2 15,3 29 16 40 22 WNW 1016,9 41 0 0,0
18.07.2019 00:00:00 19,0 15,1 26 14 38 20 WNW 1016,9 44 0 0,0
17.07.2019 23:00:00 19,2 15,1 21 11 36 19 NW 1016,7 40 0 0,0
17.07.2019 22:00:00 19,2 14,5 24 13 39 21 WNW 1016,2 45 25 0,0
17.07.2019 21:00:00 19,8 14,8 29 16 45 24 WNW 1016,0 25 55 0,0
17.07.2019 20:00:00 20,9 15,0 32 18 48 26 WNW 1015,9 8 60 0,0
17.07.2019 19:00:00 21,8 15,9 35 19 49 26 WNW 1016,0 9 60 0,0
17.07.2019 18:00:00 22,0 16,0 33 18 51 27 WNW 1015,8 11 60 0,0
17.07.2019 17:00:00 22,7 17,2 35 19 49 27 WNW 1015,9 12 60 0,0
17.07.2019 16:00:00 22,4 17,1 38 21 51 27 WNW 1016,1 13 60 0,0
17.07.2019 15:00:00 23,6 16,6 34 18 48 26 WNW 1015,8 17 60 0,0
17.07.2019 14:00:00 23,8 16,3 37 20 48 26 WNW 1015,8 21 60 0,0
17.07.2019 13:00:00 23,8 16,1 32 17 44 24 WNW 1015,9 26 60 0,0
17.07.2019 12:00:00 23,2 12,8 19 10 29 16 WNW 1016,0 34 60 0,0
17.07.2019 11:00:00 22,5 14,1 16 8 23 12 NW 1015,7 38 60 0,0
17.07.2019 10:00:00 21,7 13,1 8 5 16 9 WNW 1015,6 42 60 0,0
17.07.2019 09:00:00 20,8 13,0 8 4 13 7 N 1015,5 47 60 0,0
17.07.2019 08:00:00 19,0 13,2 9 5 13 7 N 1015,5 54 60 0,0
17.07.2019 07:00:00 17,4 12,5 10 5 17 9 NNE 1015,3 55 5 0,0
17.07.2019 06:00:00 17,5 12,4 12 6 17 9 N 1015,3 60 0 0,0
17.07.2019 05:00:00 18,3 12,7 13 7 19 10 N 1015,3 53 0 0,0
17.07.2019 04:00:00 19,1 13,3 14 8 26 14 N 1015,7 59 0 0,0
17.07.2019 03:00:00 20,2 13,2 18 10 30 16 NNW 1016,1 60 0 0,0
17.07.2019 02:00:00 20,6 12,8 17 9 27 14 NNW 1016,5 60 0 0,0
17.07.2019 01:00:00 20,6 12,3 17 9 29 15 N 1016,8 60 0 0,0
17.07.2019 00:00:00 21,6 11,9 19 10 33 18 N 1016,8 60 0 0,0
16.07.2019 23:00:00 22,4 12,9 18 10 28 15 NNW 1016,7 60 0 0,0
16.07.2019 22:00:00 21,9 16,4 15 8 29 16 NW 1016,5 54 2 0,0
16.07.2019 21:00:00 22,8 15,4 22 12 37 20 NW 1016,4 27 58 0,0
16.07.2019 20:00:00 23,7 14,7 27 15 38 21 WNW 1016,4 13 60 0,0
16.07.2019 19:00:00 24,2 15,7 26 14 42 23 WNW 1016,5 15 60 0,0
16.07.2019 18:00:00 24,2 15,1 27 15 41 22 WNW 1016,6 16 60 0,0
16.07.2019 17:00:00 25,1 13,9 30 16 41 22 NW 1016,9 17 60 0,0
16.07.2019 16:00:00 26,3 15,4 25 13 35 19 WNW 1017,3 22 60 0,0
16.07.2019 15:00:00 27,6 12,0 23 12 33 18 WNW 1017,4 26 60 0,0
16.07.2019 14:00:00 27,6 12,0 18 10 29 16 WNW 1017,6 33 60 0,0
16.07.2019 13:00:00 27,2 13,9 19 11 28 15 NNW 1017,7 38 60 0,0
16.07.2019 12:00:00 26,7 14,1 11 6 24 13 NW 1018,1 41 60 0,0
16.07.2019 11:00:00 26,3 11,2 8 4 19 10 E 1018,2 46 60 0,0
16.07.2019 10:00:00 23,8 11,8 8 5 15 8 ESE 1018,4 60 46 0,0
16.07.2019 09:00:00 21,2 11,5 10 5 15 8 E 1018,3 60 56 0,0
16.07.2019 08:00:00 16,9 12,2 5 3 10 6 ENE 1018,2 50 47 0,0
16.07.2019 07:00:00 15,0 11,2 9 5 11 6 ENE 1018,2 57 6 0,0
16.07.2019 06:00:00 14,8 11,0 6 3 13 7 NNE 1017,9 58 0 0,0
16.07.2019 05:00:00 15,3 11,3 10 5 11 6 NE 1017,8 60 0 0,0
16.07.2019 04:00:00 16,2 12,7 6 4 11 6 NE 1018,0 60 0 0,0
16.07.2019 03:00:00 17,3 13,8 7 4 10 5 N 1018,2 60 0 0,0
16.07.2019 02:00:00 17,9 13,8 7 4 17 9 N 1018,2 60 0 0,0
16.07.2019 01:00:00 18,3 14,2 10 5 17 9 N 1018,4 60 0 0,0
16.07.2019 00:00:00 19,9 17,3 9 5 11 6 NNW 1018,2 52 0 0,0
15.07.2019 23:00:00 20,2 17,6 7 4 19 10 NW 1018,2 37 0 0,0
15.07.2019 22:00:00 20,7 16,7 16 8 32 17 WNW 1017,7 46 14 0,0
15.07.2019 21:00:00 21,5 16,5 22 12 39 21 WNW 1017,5 16 60 0,0
15.07.2019 20:00:00 22,6 16,2 28 15 41 22 WNW 1017,4 12 60 0,0
15.07.2019 19:00:00 24,0 16,0 28 15 39 21 WNW 1017,2 14 60 0,0
15.07.2019 18:00:00 24,0 15,0 29 16 43 23 WNW 1017,3 17 60 0,0
15.07.2019 17:00:00 24,0 15,5 29 16 41 22 NW 1017,6 19 60 0,0
15.07.2019 16:00:00 24,0 15,0 29 16 40 22 WNW 1017,9 23 60 0,0

tt = Température de l'air
td = dewpoint
ff = Vitesse du vent
fx = gusts
dd = Direction du vent
ppp = reduced air pressure
vv = visibility
sd = Ensoleillement
rr = Quantités de précipitations

stations d'obs. à proximité